Location: Hac?musa Deresi
(39.1694°N, 32.2508°E)
Time: 14:25:06
(UTC+00:00)

PAYLOAD B - Pass Details

Date: 22 April 2026
Orbit: 848 x 870 km, 99.0° (Epoch: 11 May)

Event Time Altitude Azimuth Distance (km) Brightness Sun altitude
Exits shadow 17:47:03 15° 149° (SSE) 2,151 5.8 -13.7°
Maximum altitude 17:51:36 60° 72° (ENE) 966 4.3 -14.4°
Drops below altitude 10° 17:56:59 10° 354° (N) 2,480 7.1 -15.3°
Sets 17:59:23 0° 351° (N) 3,421 8.0 -15.7°
